Year,Month,Day,Hour,Minute,Value (Times are PST for temperature in C)
2012,02,15,00,00,-0.80
2012,02,15,00,01,-0.80
2012,02,15,00,02,-0.80
2012,02,15,00,03,-0.80
2012,02,15,00,04,-0.80
2012,02,15,00,05,-0.90
2012,02,15,00,06,-0.90
2012,02,15,00,07,-0.90
2012,02,15,00,08,-0.90
2012,02,15,00,09,-0.90
2012,02,15,00,10,-0.90
2012,02,15,00,11,-0.90
2012,02,15,00,12,-0.90
2012,02,15,00,13,-0.90
2012,02,15,00,14,-0.90
2012,02,15,00,15,-0.90
2012,02,15,00,16,-0.90
2012,02,15,00,17,-0.90
2012,02,15,00,18,-0.90
2012,02,15,00,19,-0.80
2012,02,15,00,20,-0.80
2012,02,15,00,21,-0.80
2012,02,15,00,22,-0.80
2012,02,15,00,23,-0.90
2012,02,15,00,24,-0.90
2012,02,15,00,25,-0.90
2012,02,15,00,26,-0.90
2012,02,15,00,27,-0.90
2012,02,15,00,28,-0.90
2012,02,15,00,29,-0.90
2012,02,15,00,30,-0.90
2012,02,15,00,31,-0.90
2012,02,15,00,32,-0.90
2012,02,15,00,33,-0.90
2012,02,15,00,34,-0.90
2012,02,15,00,35,-0.90
2012,02,15,00,36,-0.80
2012,02,15,00,37,-0.80
2012,02,15,00,38,-0.80
2012,02,15,00,39,-0.80
2012,02,15,00,40,-0.90
2012,02,15,00,41,-0.90
2012,02,15,00,42,-0.90
2012,02,15,00,43,-0.90
2012,02,15,00,44,-0.90
2012,02,15,00,45,-0.90
2012,02,15,00,46,-0.90
2012,02,15,00,47,-0.90
2012,02,15,00,48,-0.90
2012,02,15,00,49,-1.00
2012,02,15,00,50,-1.00
2012,02,15,00,51,-1.00
2012,02,15,00,52,-1.00
2012,02,15,00,53,-1.10
2012,02,15,00,54,-1.10
2012,02,15,00,55,-1.10
2012,02,15,00,56,-1.10
2012,02,15,00,57,-1.10
2012,02,15,00,58,-1.10
2012,02,15,00,59,-1.10
2012,02,15,01,00,-1.00
2012,02,15,01,01,-1.00
2012,02,15,01,02,-1.00
2012,02,15,01,03,-1.10
2012,02,15,01,04,-1.10
2012,02,15,01,05,-1.10
2012,02,15,01,06,-1.10
2012,02,15,01,07,-1.10
2012,02,15,01,08,-1.10
2012,02,15,01,09,-1.20
2012,02,15,01,10,-1.20
2012,02,15,01,11,-1.20
2012,02,15,01,12,-1.20
2012,02,15,01,13,-1.20
2012,02,15,01,14,-1.20
2012,02,15,01,15,-1.20
2012,02,15,01,16,-1.20
2012,02,15,01,17,-1.20
2012,02,15,01,18,-1.20
2012,02,15,01,19,-1.20
2012,02,15,01,20,-1.20
2012,02,15,01,21,-1.20
2012,02,15,01,22,-1.20
2012,02,15,01,23,-1.20
2012,02,15,01,24,-1.20
2012,02,15,01,25,-1.20
2012,02,15,01,26,-1.20
2012,02,15,01,27,-1.20
2012,02,15,01,28,-1.20
2012,02,15,01,29,-1.20
2012,02,15,01,30,-1.20
2012,02,15,01,31,-1.20
2012,02,15,01,32,-1.20
2012,02,15,01,33,-1.10
2012,02,15,01,34,-1.10
2012,02,15,01,35,-1.10
2012,02,15,01,36,-1.10
2012,02,15,01,37,-1.10
2012,02,15,01,38,-1.10
2012,02,15,01,39,-1.10
2012,02,15,01,40,-1.10
2012,02,15,01,41,-1.10
2012,02,15,01,42,-1.10
2012,02,15,01,43,-1.10
2012,02,15,01,44,-1.10
2012,02,15,01,45,-1.10
2012,02,15,01,46,-1.10
2012,02,15,01,47,-1.10
2012,02,15,01,48,-1.20
2012,02,15,01,49,-1.20
2012,02,15,01,50,-1.20
2012,02,15,01,51,-1.20
2012,02,15,01,52,-1.20
2012,02,15,01,53,-1.30
2012,02,15,01,54,-1.30
2012,02,15,01,55,-1.30
2012,02,15,01,56,-1.30
2012,02,15,01,57,-1.30
2012,02,15,01,58,-1.30
2012,02,15,01,59,-1.30
2012,02,15,02,00,-1.30
2012,02,15,02,01,-1.30
2012,02,15,02,02,-1.30
2012,02,15,02,03,-1.30
2012,02,15,02,04,-1.30
2012,02,15,02,05,-1.30
2012,02,15,02,06,-1.30
2012,02,15,02,07,-1.30
2012,02,15,02,08,-1.30
2012,02,15,02,09,-1.30
2012,02,15,02,10,-1.30
2012,02,15,02,11,-1.30
2012,02,15,02,12,-1.30
2012,02,15,02,13,-1.20
2012,02,15,02,14,-1.20
2012,02,15,02,15,-1.20
2012,02,15,02,16,-1.20
2012,02,15,02,17,-1.20
2012,02,15,02,18,-1.30
2012,02,15,02,19,-1.30
2012,02,15,02,20,-1.30
2012,02,15,02,21,-1.30
2012,02,15,02,22,-1.30
2012,02,15,02,23,-1.30
2012,02,15,02,24,-1.30
2012,02,15,02,25,-1.30
2012,02,15,02,26,-1.30
2012,02,15,02,27,-1.30
2012,02,15,02,28,-1.30
2012,02,15,02,29,-1.30
2012,02,15,02,30,-1.30
2012,02,15,02,31,-1.30
2012,02,15,02,32,-1.30
2012,02,15,02,33,-1.30
2012,02,15,02,34,-1.30
2012,02,15,02,35,-1.20
2012,02,15,02,36,-1.20
2012,02,15,02,37,-1.20
2012,02,15,02,38,-1.20
2012,02,15,02,39,-1.20
2012,02,15,02,40,-1.20
2012,02,15,02,41,-1.20
2012,02,15,02,42,-1.20
2012,02,15,02,43,-1.20
2012,02,15,02,44,-1.30
2012,02,15,02,45,-1.30
2012,02,15,02,46,-1.30
2012,02,15,02,47,-1.30
2012,02,15,02,48,-1.30
2012,02,15,02,49,-1.30
2012,02,15,02,50,-1.30
2012,02,15,02,51,-1.30
2012,02,15,02,52,-1.30
2012,02,15,02,53,-1.30
2012,02,15,02,54,-1.30
2012,02,15,02,55,-1.40
2012,02,15,02,56,-1.40
2012,02,15,02,57,-1.40
2012,02,15,02,58,-1.40
2012,02,15,02,59,-1.40
2012,02,15,03,00,-1.40
2012,02,15,03,01,-1.40
2012,02,15,03,02,-1.40
2012,02,15,03,03,-1.40
2012,02,15,03,04,-1.40
2012,02,15,03,05,-1.40
2012,02,15,03,06,-1.40
2012,02,15,03,07,-1.40
2012,02,15,03,08,-1.50
2012,02,15,03,09,-1.50
2012,02,15,03,10,-1.50
2012,02,15,03,11,-1.50
2012,02,15,03,12,-1.60
2012,02,15,03,13,-1.60
2012,02,15,03,14,-1.60
2012,02,15,03,15,-1.60
2012,02,15,03,16,-1.60
2012,02,15,03,17,-1.60
2012,02,15,03,18,-1.60
2012,02,15,03,19,-1.60
2012,02,15,03,20,-1.60
2012,02,15,03,21,-1.60
2012,02,15,03,22,-1.60
2012,02,15,03,23,-1.60
2012,02,15,03,24,-1.60
2012,02,15,03,25,-1.60
2012,02,15,03,26,-1.60
2012,02,15,03,27,-1.60
2012,02,15,03,28,-1.60
2012,02,15,03,29,-1.60
2012,02,15,03,30,-1.60
2012,02,15,03,31,-1.60
2012,02,15,03,32,-1.60
2012,02,15,03,33,-1.60
2012,02,15,03,34,-1.60
2012,02,15,03,35,-1.60
2012,02,15,03,36,-1.60
2012,02,15,03,37,-1.60
2012,02,15,03,38,-1.60
2012,02,15,03,39,-1.60
2012,02,15,03,40,-1.50
2012,02,15,03,41,-1.50
2012,02,15,03,42,-1.50
2012,02,15,03,43,-1.50
2012,02,15,03,44,-1.50
2012,02,15,03,45,-1.50
2012,02,15,03,46,-1.50
2012,02,15,03,47,-1.50
2012,02,15,03,48,-1.50
2012,02,15,03,49,-1.50
2012,02,15,03,50,-1.50
2012,02,15,03,51,-1.40
2012,02,15,03,52,-1.50
2012,02,15,03,53,-1.50
2012,02,15,03,54,-1.50
2012,02,15,03,55,-1.50
2012,02,15,03,56,-1.60
2012,02,15,03,57,-1.60
2012,02,15,03,58,-1.60
2012,02,15,03,59,-1.60
2012,02,15,04,00,-1.60
2012,02,15,04,01,-1.70
2012,02,15,04,02,-1.70
2012,02,15,04,03,-1.70
2012,02,15,04,04,-1.70
2012,02,15,04,05,-1.70
2012,02,15,04,06,-1.70
2012,02,15,04,07,-1.80
2012,02,15,04,08,-1.80
2012,02,15,04,09,-1.80
2012,02,15,04,10,-1.80
2012,02,15,04,11,-1.80
2012,02,15,04,12,-1.80
2012,02,15,04,13,-1.80
2012,02,15,04,14,-1.80
2012,02,15,04,15,-1.80
2012,02,15,04,16,-1.80
2012,02,15,04,17,-1.80
2012,02,15,04,18,-1.80
2012,02,15,04,19,-1.80
2012,02,15,04,20,-1.80
2012,02,15,04,21,-1.80
2012,02,15,04,22,-1.80
2012,02,15,04,23,-1.80
2012,02,15,04,24,-1.80
2012,02,15,04,25,-1.80
2012,02,15,04,26,-1.80
2012,02,15,04,27,-1.80
2012,02,15,04,28,-1.80
2012,02,15,04,29,-1.90
2012,02,15,04,30,-1.90
2012,02,15,04,31,-1.90
2012,02,15,04,32,-1.90
2012,02,15,04,33,-1.90
2012,02,15,04,34,-1.90
2012,02,15,04,35,-1.90
2012,02,15,04,36,-1.90
2012,02,15,04,37,-1.90
2012,02,15,04,38,-1.90
2012,02,15,04,39,-1.90
2012,02,15,04,40,-1.90
2012,02,15,04,41,-1.90
2012,02,15,04,42,-1.90
2012,02,15,04,43,-1.90
2012,02,15,04,44,-1.90
2012,02,15,04,45,-2.00
2012,02,15,04,46,-2.00
2012,02,15,04,47,-2.00
2012,02,15,04,48,-2.00
2012,02,15,04,49,-2.00
2012,02,15,04,50,-2.00
2012,02,15,04,51,-2.00
2012,02,15,04,52,-2.00
2012,02,15,04,53,-2.00
2012,02,15,04,54,-2.00
2012,02,15,04,55,-2.00
2012,02,15,04,56,-2.00
2012,02,15,04,57,-2.00
2012,02,15,04,58,-2.10
2012,02,15,04,59,-2.10
2012,02,15,05,00,-2.10
2012,02,15,05,01,-2.10
2012,02,15,05,02,-2.10
2012,02,15,05,03,-2.10
2012,02,15,05,04,-2.10
2012,02,15,05,05,-2.10
2012,02,15,05,06,-2.10
2012,02,15,05,07,-2.10
2012,02,15,05,08,-2.10
2012,02,15,05,09,-2.10
2012,02,15,05,10,-2.10
2012,02,15,05,11,-2.10
2012,02,15,05,12,-2.10
2012,02,15,05,13,-2.10
2012,02,15,05,14,-2.10
2012,02,15,05,15,-2.10
2012,02,15,05,16,-2.10
2012,02,15,05,17,-2.10
2012,02,15,05,18,-2.10
2012,02,15,05,19,-2.10
2012,02,15,05,20,-2.10
2012,02,15,05,21,-2.10
2012,02,15,05,22,-2.10
2012,02,15,05,23,-2.10
2012,02,15,05,24,-2.10
2012,02,15,05,25,-2.10
2012,02,15,05,26,-2.00
2012,02,15,05,27,-2.00
2012,02,15,05,28,-2.10
2012,02,15,05,29,-2.10
2012,02,15,05,30,-2.10
2012,02,15,05,31,-2.10
2012,02,15,05,32,-2.10
2012,02,15,05,33,-2.10
2012,02,15,05,34,-2.10
2012,02,15,05,35,-2.10
2012,02,15,05,36,-2.20
2012,02,15,05,37,-2.20
2012,02,15,05,38,-2.20
2012,02,15,05,39,-2.10
2012,02,15,05,40,-2.10
2012,02,15,05,41,-2.10
2012,02,15,05,42,-2.10
2012,02,15,05,43,-2.10
2012,02,15,05,44,-2.10
2012,02,15,05,45,-2.10
2012,02,15,05,46,-2.10
2012,02,15,05,47,-2.10
2012,02,15,05,48,-2.10
2012,02,15,05,49,-2.10
2012,02,15,05,50,-2.10
2012,02,15,05,51,-2.10
2012,02,15,05,52,-2.10
2012,02,15,05,53,-2.00
2012,02,15,05,54,-2.00
2012,02,15,05,55,-2.10
2012,02,15,05,56,-2.10
2012,02,15,05,57,-2.10
2012,02,15,05,58,-2.10
2012,02,15,05,59,-2.10
2012,02,15,06,00,-2.10
2012,02,15,06,01,-2.10
2012,02,15,06,02,-2.10
2012,02,15,06,03,-2.10
2012,02,15,06,04,-2.20
2012,02,15,06,05,-2.20
2012,02,15,06,06,-2.20
2012,02,15,06,07,-2.20
2012,02,15,06,08,-2.20
2012,02,15,06,09,-2.20
2012,02,15,06,10,-2.20
2012,02,15,06,11,-2.20
2012,02,15,06,12,-2.20
2012,02,15,06,13,-2.20
2012,02,15,06,14,-2.20
2012,02,15,06,15,-2.20
2012,02,15,06,16,-2.20
2012,02,15,06,17,-2.20
2012,02,15,06,18,-2.20
2012,02,15,06,19,-2.20
2012,02,15,06,20,-2.30
2012,02,15,06,21,-2.30
2012,02,15,06,22,-2.30
2012,02,15,06,23,-2.30
2012,02,15,06,24,-2.30
2012,02,15,06,25,-2.30
2012,02,15,06,26,-2.30
2012,02,15,06,27,-2.30
2012,02,15,06,28,-2.30
2012,02,15,06,29,-2.30
2012,02,15,06,30,-2.30
2012,02,15,06,31,-2.30
2012,02,15,06,32,-2.30
2012,02,15,06,33,-2.40
2012,02,15,06,34,-2.40
2012,02,15,06,35,-2.30
2012,02,15,06,36,-2.30
2012,02,15,06,37,-2.30
2012,02,15,06,38,-2.30
2012,02,15,06,39,-2.30
2012,02,15,06,40,-2.40
2012,02,15,06,41,-2.40
2012,02,15,06,42,-2.30
2012,02,15,06,43,-2.30
2012,02,15,06,44,-2.30
2012,02,15,06,45,-2.30
2012,02,15,06,46,-2.30
2012,02,15,06,47,-2.30
2012,02,15,06,48,-2.30
2012,02,15,06,49,-2.20
2012,02,15,06,50,-2.20
2012,02,15,06,51,-2.20
2012,02,15,06,52,-2.30
2012,02,15,06,53,-2.30
2012,02,15,06,54,-2.30
2012,02,15,06,55,-2.30
2012,02,15,06,56,-2.30
2012,02,15,06,57,-2.30
2012,02,15,06,58,-2.30
2012,02,15,06,59,-2.30
2012,02,15,07,00,-2.40
2012,02,15,07,01,-2.40
2012,02,15,07,02,-2.40
2012,02,15,07,03,-2.40
2012,02,15,07,04,-2.40
2012,02,15,07,05,-2.40
2012,02,15,07,06,-2.40
2012,02,15,07,07,-2.40
2012,02,15,07,08,-2.30
2012,02,15,07,09,-2.30
2012,02,15,07,10,-2.30
2012,02,15,07,11,-2.40
2012,02,15,07,12,-2.40
2012,02,15,07,13,-2.40
2012,02,15,07,14,-2.40
2012,02,15,07,15,-2.40
2012,02,15,07,16,-2.40
2012,02,15,07,17,-2.50
2012,02,15,07,18,-2.40
2012,02,15,07,19,-2.40
2012,02,15,07,20,-2.40
2012,02,15,07,21,-2.40
2012,02,15,07,22,-2.40
2012,02,15,07,23,-2.40
2012,02,15,07,24,-2.30
2012,02,15,07,25,-2.30
2012,02,15,07,26,-2.30
2012,02,15,07,27,-2.30
2012,02,15,07,28,-2.30
2012,02,15,07,29,-2.30
2012,02,15,07,30,-2.30
2012,02,15,07,31,-2.30
2012,02,15,07,32,-2.30
2012,02,15,07,33,-2.30
2012,02,15,07,34,-2.30
2012,02,15,07,35,-2.30
2012,02,15,07,36,-2.40
2012,02,15,07,37,-2.40
2012,02,15,07,38,-2.40
2012,02,15,07,39,-2.40
2012,02,15,07,40,-2.40
2012,02,15,07,41,-2.30
2012,02,15,07,42,-2.30
2012,02,15,07,43,-2.30
2012,02,15,07,44,-2.30
2012,02,15,07,45,-2.30
2012,02,15,07,46,-2.30
2012,02,15,07,47,-2.30
2012,02,15,07,48,-2.30
2012,02,15,07,49,-2.30
2012,02,15,07,50,-2.30
2012,02,15,07,51,-2.30
2012,02,15,07,52,-2.30
2012,02,15,07,53,-2.20
2012,02,15,07,54,-2.20
2012,02,15,07,55,-2.20
2012,02,15,07,56,-2.20
2012,02,15,07,57,-2.20
2012,02,15,07,58,-2.10
2012,02,15,07,59,-2.10
2012,02,15,08,00,-2.10
2012,02,15,08,01,-2.10
2012,02,15,08,02,-2.10
2012,02,15,08,03,-2.10
2012,02,15,08,04,-2.00
2012,02,15,08,05,-2.00
2012,02,15,08,06,-2.00
2012,02,15,08,07,-2.00
2012,02,15,08,08,-1.90
2012,02,15,08,09,-1.90
2012,02,15,08,10,-1.90
2012,02,15,08,11,-1.90
2012,02,15,08,12,-1.90
2012,02,15,08,13,-1.90
2012,02,15,08,14,-1.90
2012,02,15,08,15,-1.90
2012,02,15,08,16,-1.90
2012,02,15,08,17,-1.90
2012,02,15,08,18,-1.90
2012,02,15,08,19,-1.90
2012,02,15,08,20,-1.90
2012,02,15,08,21,-1.90
2012,02,15,08,22,-1.90
2012,02,15,08,23,-1.80
2012,02,15,08,24,-1.80
2012,02,15,08,25,-1.80
2012,02,15,08,26,-1.80
2012,02,15,08,27,-1.80
2012,02,15,08,28,-1.80
2012,02,15,08,29,-1.80
2012,02,15,08,30,-1.80
2012,02,15,08,31,-1.80
2012,02,15,08,32,-1.80
2012,02,15,08,33,-1.70
2012,02,15,08,34,-1.70
2012,02,15,08,35,-1.70
2012,02,15,08,36,-1.70
2012,02,15,08,37,-1.70
2012,02,15,08,38,-1.70
2012,02,15,08,39,-1.70
2012,02,15,08,40,-1.60
2012,02,15,08,41,-1.60
2012,02,15,08,42,-1.60
2012,02,15,08,43,-1.60
2012,02,15,08,44,-1.50
2012,02,15,08,45,-1.50
2012,02,15,08,46,-1.40
2012,02,15,08,47,-1.40
2012,02,15,08,48,-1.40
2012,02,15,08,49,-1.30
2012,02,15,08,50,-1.30
2012,02,15,08,51,-1.20
2012,02,15,08,52,-1.20
2012,02,15,08,53,-1.10
2012,02,15,08,54,-1.10
2012,02,15,08,55,-1.00
2012,02,15,08,56,-0.90
2012,02,15,08,57,-0.90
2012,02,15,08,58,-0.80
2012,02,15,08,59,-0.80
2012,02,15,09,00,-0.70
2012,02,15,09,01,-0.70
2012,02,15,09,02,-0.60
2012,02,15,09,03,-0.50
2012,02,15,09,04,-0.40
2012,02,15,09,05,-0.40
2012,02,15,09,06,-0.30
2012,02,15,09,07,-0.20
2012,02,15,09,08,-0.20
2012,02,15,09,09,-0.10
2012,02,15,09,10,-0.10
2012,02,15,09,11,0.00
2012,02,15,09,12,0.10
2012,02,15,09,13,0.10
2012,02,15,09,14,0.20
2012,02,15,09,15,0.20
2012,02,15,09,16,0.30
2012,02,15,09,17,0.40
2012,02,15,09,18,0.40
2012,02,15,09,19,0.50
2012,02,15,09,20,0.60
2012,02,15,09,21,0.70
2012,02,15,09,22,0.80
2012,02,15,09,23,0.80
2012,02,15,09,24,0.90
2012,02,15,09,25,0.90
2012,02,15,09,26,1.00
2012,02,15,09,27,1.00
2012,02,15,09,28,1.10
2012,02,15,09,29,1.10
2012,02,15,09,30,1.10
2012,02,15,09,31,1.20
2012,02,15,09,32,1.20
2012,02,15,09,33,1.20
2012,02,15,09,34,1.30
2012,02,15,09,35,1.30
2012,02,15,09,36,1.40
2012,02,15,09,37,1.40
2012,02,15,09,38,1.50
2012,02,15,09,39,1.60
2012,02,15,09,40,1.60
2012,02,15,09,41,1.60
2012,02,15,09,42,1.70
2012,02,15,09,43,1.70
2012,02,15,09,44,1.80
2012,02,15,09,45,1.90
2012,02,15,09,46,2.00
2012,02,15,09,47,2.00
2012,02,15,09,48,2.10
2012,02,15,09,49,2.20
2012,02,15,09,50,2.30
2012,02,15,09,51,2.30
2012,02,15,09,52,2.40
2012,02,15,09,53,2.40
2012,02,15,09,54,2.50
2012,02,15,09,55,2.60
2012,02,15,09,56,2.60
2012,02,15,09,57,2.70
2012,02,15,09,58,2.80
2012,02,15,09,59,2.80
2012,02,15,10,00,2.90
2012,02,15,10,01,2.90
2012,02,15,10,02,3.00
2012,02,15,10,03,3.00
2012,02,15,10,04,3.10
2012,02,15,10,05,3.10
2012,02,15,10,06,3.10
2012,02,15,10,07,3.20
2012,02,15,10,08,3.20
2012,02,15,10,09,3.30
2012,02,15,10,10,3.40
2012,02,15,10,11,3.40
2012,02,15,10,12,3.50
2012,02,15,10,13,3.50
2012,02,15,10,14,3.60
2012,02,15,10,15,3.60
2012,02,15,10,16,3.70
2012,02,15,10,17,3.80
2012,02,15,10,18,3.80
2012,02,15,10,19,3.80
2012,02,15,10,20,3.90
2012,02,15,10,21,4.00
2012,02,15,10,22,4.10
2012,02,15,10,23,4.10
2012,02,15,10,24,4.20
2012,02,15,10,25,4.30
2012,02,15,10,26,4.30
2012,02,15,10,27,4.40
2012,02,15,10,28,4.50
2012,02,15,10,29,4.50
2012,02,15,10,30,4.60
2012,02,15,10,31,4.70
2012,02,15,10,32,4.80
2012,02,15,10,33,4.80
2012,02,15,10,34,4.90
2012,02,15,10,35,4.90
2012,02,15,10,36,5.00
2012,02,15,10,37,5.10
2012,02,15,10,38,5.10
2012,02,15,10,39,5.10
2012,02,15,10,40,5.10
2012,02,15,10,41,5.10
2012,02,15,10,42,5.10
2012,02,15,10,43,5.20
2012,02,15,10,44,5.20
2012,02,15,10,45,5.20
2012,02,15,10,46,5.20
2012,02,15,10,47,5.30
2012,02,15,10,48,5.30
2012,02,15,10,49,5.30
2012,02,15,10,50,5.30
2012,02,15,10,51,5.30
2012,02,15,10,52,5.30
2012,02,15,10,53,5.40
2012,02,15,10,54,5.40
2012,02,15,10,55,5.40
2012,02,15,10,56,5.40
2012,02,15,10,57,5.40
2012,02,15,10,58,5.50
2012,02,15,10,59,5.50
2012,02,15,11,00,5.60
2012,02,15,11,01,5.60
2012,02,15,11,02,5.60
2012,02,15,11,03,5.60
2012,02,15,11,04,5.70
2012,02,15,11,05,5.70
2012,02,15,11,06,5.70
2012,02,15,11,07,5.70
2012,02,15,11,08,5.80
2012,02,15,11,09,5.80
2012,02,15,11,10,5.80
2012,02,15,11,11,5.90
2012,02,15,11,12,5.90
2012,02,15,11,13,6.00
2012,02,15,11,14,6.10
2012,02,15,11,15,6.10
2012,02,15,11,16,6.20
2012,02,15,11,17,6.20
2012,02,15,11,18,6.20
2012,02,15,11,19,6.30
2012,02,15,11,20,6.30
2012,02,15,11,21,6.30
2012,02,15,11,22,6.30
2012,02,15,11,23,6.40
2012,02,15,11,24,6.40
2012,02,15,11,25,6.50
2012,02,15,11,26,6.60
2012,02,15,11,27,6.60
2012,02,15,11,28,6.60
2012,02,15,11,29,6.60
2012,02,15,11,30,6.60
2012,02,15,11,31,6.60
2012,02,15,11,32,6.60
2012,02,15,11,33,6.60
2012,02,15,11,34,6.60
2012,02,15,11,35,6.60
2012,02,15,11,36,6.70
2012,02,15,11,37,6.70
2012,02,15,11,38,6.70
2012,02,15,11,39,6.70
2012,02,15,11,40,6.70
2012,02,15,11,41,6.70
2012,02,15,11,42,6.70
2012,02,15,11,43,6.70
2012,02,15,11,44,6.70
2012,02,15,11,45,6.70
2012,02,15,11,46,6.70
2012,02,15,11,47,6.80
2012,02,15,11,48,6.80
2012,02,15,11,49,6.90
2012,02,15,11,50,6.90
2012,02,15,11,51,7.00
2012,02,15,11,52,7.00
2012,02,15,11,53,7.10
2012,02,15,11,54,7.10
2012,02,15,11,55,7.10
2012,02,15,11,56,7.10
2012,02,15,11,57,7.10
2012,02,15,11,58,7.10
2012,02,15,11,59,7.10
2012,02,15,12,00,7.10
2012,02,15,12,01,7.10
2012,02,15,12,02,7.10
2012,02,15,12,03,7.10
2012,02,15,12,04,7.10
2012,02,15,12,05,7.10
2012,02,15,12,06,7.10
2012,02,15,12,07,7.10
2012,02,15,12,08,7.20
2012,02,15,12,09,7.20
2012,02,15,12,10,7.20
2012,02,15,12,11,7.30
2012,02,15,12,12,7.30
2012,02,15,12,13,7.30
2012,02,15,12,14,7.30
2012,02,15,12,15,7.30
2012,02,15,12,16,7.30
2012,02,15,12,17,7.30
2012,02,15,12,18,7.30
2012,02,15,12,19,7.30
2012,02,15,12,20,7.30
2012,02,15,12,21,7.30
2012,02,15,12,22,7.30
2012,02,15,12,23,7.30
2012,02,15,12,24,7.30
2012,02,15,12,25,7.30
2012,02,15,12,26,7.30
2012,02,15,12,27,7.30
2012,02,15,12,28,7.30
2012,02,15,12,29,7.30
2012,02,15,12,30,7.40
2012,02,15,12,31,7.50
2012,02,15,12,32,7.50
2012,02,15,12,33,7.60
2012,02,15,12,34,7.60
2012,02,15,12,35,7.60
2012,02,15,12,36,7.60
2012,02,15,12,37,7.60
2012,02,15,12,38,7.70
2012,02,15,12,39,7.70
2012,02,15,12,40,7.70
2012,02,15,12,41,7.80
2012,02,15,12,42,7.80
2012,02,15,12,43,7.80
2012,02,15,12,44,7.80
2012,02,15,12,45,7.80
2012,02,15,12,46,7.80
2012,02,15,12,47,7.80
2012,02,15,12,48,7.80
2012,02,15,12,49,7.80
2012,02,15,12,50,7.80
2012,02,15,12,51,7.80
2012,02,15,12,52,7.70
2012,02,15,12,53,7.70
2012,02,15,12,54,7.70
2012,02,15,12,55,7.70
2012,02,15,12,56,7.70
2012,02,15,12,57,7.70
2012,02,15,12,58,7.70
2012,02,15,12,59,7.70
2012,02,15,13,00,7.70
2012,02,15,13,01,7.70
2012,02,15,13,02,7.70
2012,02,15,13,03,7.70
2012,02,15,13,04,7.70
2012,02,15,13,05,7.70
2012,02,15,13,06,7.70
2012,02,15,13,07,7.80
2012,02,15,13,08,7.80
2012,02,15,13,09,7.80
2012,02,15,13,10,7.80
2012,02,15,13,11,7.80
2012,02,15,13,12,7.80
2012,02,15,13,13,7.80
2012,02,15,13,14,7.80
2012,02,15,13,15,7.80
2012,02,15,13,16,7.80
2012,02,15,13,17,7.70
2012,02,15,13,18,7.70
2012,02,15,13,19,7.70
2012,02,15,13,20,7.70
2012,02,15,13,21,7.70
2012,02,15,13,22,7.70
2012,02,15,13,23,7.60
2012,02,15,13,24,7.70
2012,02,15,13,25,7.70
2012,02,15,13,26,7.70
2012,02,15,13,27,7.70
2012,02,15,13,28,7.70
2012,02,15,13,29,7.70
2012,02,15,13,30,7.70
2012,02,15,13,31,7.70
2012,02,15,13,32,7.70
2012,02,15,13,33,7.80
2012,02,15,13,34,7.80
2012,02,15,13,35,7.80
2012,02,15,13,36,7.80
2012,02,15,13,37,7.80
2012,02,15,13,38,7.80
2012,02,15,13,39,7.80
2012,02,15,13,40,7.80
2012,02,15,13,41,7.80
2012,02,15,13,42,7.90
2012,02,15,13,43,7.90
2012,02,15,13,44,7.80
2012,02,15,13,45,7.80
2012,02,15,13,46,7.90
2012,02,15,13,47,7.90
2012,02,15,13,48,7.90
2012,02,15,13,49,7.90
2012,02,15,13,50,7.90
2012,02,15,13,51,7.90
2012,02,15,13,52,7.90
2012,02,15,13,53,7.90
2012,02,15,13,54,7.90
2012,02,15,13,55,7.90
2012,02,15,13,56,7.90
2012,02,15,13,57,7.90
2012,02,15,13,58,7.90
2012,02,15,13,59,7.90
2012,02,15,14,00,7.90
2012,02,15,14,01,7.90
2012,02,15,14,02,7.90
2012,02,15,14,03,7.90
2012,02,15,14,04,7.90
2012,02,15,14,05,7.90
2012,02,15,14,06,7.90
2012,02,15,14,07,8.00
2012,02,15,14,08,8.00
2012,02,15,14,09,8.10
2012,02,15,14,10,8.10
2012,02,15,14,11,8.10
2012,02,15,14,12,8.10
2012,02,15,14,13,8.10
2012,02,15,14,14,8.00
2012,02,15,14,15,8.00
2012,02,15,14,16,7.90
2012,02,15,14,17,7.90
2012,02,15,14,18,7.90
2012,02,15,14,19,7.90
2012,02,15,14,20,7.90
2012,02,15,14,21,7.90
2012,02,15,14,22,7.90
2012,02,15,14,23,7.90
2012,02,15,14,24,7.80
2012,02,15,14,25,7.80
2012,02,15,14,26,7.90
2012,02,15,14,27,7.90
2012,02,15,14,28,7.90
2012,02,15,14,29,7.90
2012,02,15,14,30,7.80
2012,02,15,14,31,7.80
2012,02,15,14,32,7.80
2012,02,15,14,33,7.80
2012,02,15,14,34,7.80
2012,02,15,14,35,7.80
2012,02,15,14,36,7.80
2012,02,15,14,37,7.80
2012,02,15,14,38,7.80
2012,02,15,14,39,7.80
2012,02,15,14,40,7.80
2012,02,15,14,41,7.80
2012,02,15,14,42,7.80
2012,02,15,14,43,7.90
2012,02,15,14,44,7.80
2012,02,15,14,45,7.80
2012,02,15,14,46,7.80
2012,02,15,14,47,7.80
2012,02,15,14,48,7.80
2012,02,15,14,49,7.80
2012,02,15,14,50,7.80
2012,02,15,14,51,7.80
2012,02,15,14,52,7.80
2012,02,15,14,53,7.80
2012,02,15,14,54,7.80
2012,02,15,14,55,7.80
2012,02,15,14,56,7.70
2012,02,15,14,57,7.70
2012,02,15,14,58,7.70
2012,02,15,14,59,7.70
2012,02,15,15,00,7.70
2012,02,15,15,01,7.70
2012,02,15,15,02,7.70
2012,02,15,15,03,7.70
2012,02,15,15,04,7.70
2012,02,15,15,05,7.70
2012,02,15,15,06,7.70
2012,02,15,15,07,7.70
2012,02,15,15,08,7.70
2012,02,15,15,09,7.70
2012,02,15,15,10,7.70
2012,02,15,15,11,7.70
2012,02,15,15,12,7.70
2012,02,15,15,13,7.70
2012,02,15,15,14,7.80
2012,02,15,15,15,7.80
2012,02,15,15,16,7.80
2012,02,15,15,17,7.90
2012,02,15,15,18,7.90
2012,02,15,15,19,7.90
2012,02,15,15,20,8.00
2012,02,15,15,21,8.00
2012,02,15,15,22,8.00
2012,02,15,15,23,8.00
2012,02,15,15,24,7.90
2012,02,15,15,25,7.90
2012,02,15,15,26,7.90
2012,02,15,15,27,7.90
2012,02,15,15,28,7.80
2012,02,15,15,29,7.80
2012,02,15,15,30,7.70
2012,02,15,15,31,7.70
2012,02,15,15,32,7.60
2012,02,15,15,33,7.60
2012,02,15,15,34,7.50
2012,02,15,15,35,7.50
2012,02,15,15,36,7.40
2012,02,15,15,37,7.40
2012,02,15,15,38,7.40
2012,02,15,15,39,7.40
2012,02,15,15,40,7.30
2012,02,15,15,41,7.30
2012,02,15,15,42,7.30
2012,02,15,15,43,7.30
2012,02,15,15,44,7.20
2012,02,15,15,45,7.20
2012,02,15,15,46,7.10
2012,02,15,15,47,7.10
2012,02,15,15,48,7.10
2012,02,15,15,49,7.10
2012,02,15,15,50,7.10
2012,02,15,15,51,7.10
2012,02,15,15,52,7.00
2012,02,15,15,53,7.00
2012,02,15,15,54,7.00
2012,02,15,15,55,7.00
2012,02,15,15,56,6.90
2012,02,15,15,57,6.90
2012,02,15,15,58,6.80
2012,02,15,15,59,6.80
2012,02,15,16,00,6.80
2012,02,15,16,01,6.80
2012,02,15,16,02,6.80
2012,02,15,16,03,6.80
2012,02,15,16,04,6.80
2012,02,15,16,05,6.80
2012,02,15,16,06,6.80
2012,02,15,16,07,6.80
2012,02,15,16,08,6.80
2012,02,15,16,09,6.80
2012,02,15,16,10,6.80
2012,02,15,16,11,6.80
2012,02,15,16,12,6.80
2012,02,15,16,13,6.80
2012,02,15,16,14,6.80
2012,02,15,16,15,6.80
2012,02,15,16,16,6.80
2012,02,15,16,17,6.80
2012,02,15,16,18,6.80
2012,02,15,16,19,6.80
2012,02,15,16,20,6.80
2012,02,15,16,21,6.80
2012,02,15,16,22,6.80
2012,02,15,16,23,6.80
2012,02,15,16,24,6.80
2012,02,15,16,25,6.80
2012,02,15,16,26,6.80
2012,02,15,16,27,6.80
2012,02,15,16,28,6.70
2012,02,15,16,29,6.70
2012,02,15,16,30,6.70
2012,02,15,16,31,6.70
2012,02,15,16,32,6.70
2012,02,15,16,33,6.70
2012,02,15,16,34,6.70
2012,02,15,16,35,6.70
2012,02,15,16,36,6.70
2012,02,15,16,37,6.70
2012,02,15,16,38,6.70
2012,02,15,16,39,6.70
2012,02,15,16,40,6.70
2012,02,15,16,41,6.70
2012,02,15,16,42,6.70
2012,02,15,16,43,6.70
2012,02,15,16,44,6.70
2012,02,15,16,45,6.70
2012,02,15,16,46,6.70
2012,02,15,16,47,6.70
2012,02,15,16,48,6.70
2012,02,15,16,49,6.70
2012,02,15,16,50,6.70
2012,02,15,16,51,6.70
2012,02,15,16,52,6.70
2012,02,15,16,53,6.70
2012,02,15,16,54,6.70
2012,02,15,16,55,6.70
2012,02,15,16,56,6.60
2012,02,15,16,57,6.60
2012,02,15,16,58,6.60
2012,02,15,16,59,6.60
2012,02,15,17,00,6.60
2012,02,15,17,01,6.60
2012,02,15,17,02,6.60
2012,02,15,17,03,6.60
2012,02,15,17,04,6.60
2012,02,15,17,05,6.60
2012,02,15,17,06,6.60
2012,02,15,17,07,6.60
2012,02,15,17,08,6.60
2012,02,15,17,09,6.60
2012,02,15,17,10,6.60
2012,02,15,17,11,6.60
2012,02,15,17,12,6.60
2012,02,15,17,13,6.50
2012,02,15,17,14,6.50
2012,02,15,17,15,6.50
2012,02,15,17,16,6.50
2012,02,15,17,17,6.50
2012,02,15,17,18,6.50
2012,02,15,17,19,6.40
2012,02,15,17,20,6.40
2012,02,15,17,21,6.40
2012,02,15,17,22,6.40
2012,02,15,17,23,6.40
2012,02,15,17,24,6.40
2012,02,15,17,25,6.40
2012,02,15,17,26,6.40
2012,02,15,17,27,6.30
2012,02,15,17,28,6.30
2012,02,15,17,29,6.30
2012,02,15,17,30,6.30
2012,02,15,17,31,6.30
2012,02,15,17,32,6.30
2012,02,15,17,33,6.20
2012,02,15,17,34,6.20
2012,02,15,17,35,6.20
2012,02,15,17,36,6.20
2012,02,15,17,37,6.20
2012,02,15,17,38,6.20
2012,02,15,17,39,6.10
2012,02,15,17,40,6.10
2012,02,15,17,41,6.10